Weather Service Report


828 
ASUS44 KJAN 271003
RWRMS 

MISSISSIPPI HOURLY WEATHER ROUNDUP
NATIONAL WEATHER SERVICE JACKSON MS
500 AM CDT WED JUL 27 2016

NOTE: "FAIR: INDICATES FEW OR NO CLOUDS BELOW 12,000 FEET WITH NO
SIGNIFICANT WEATHER AND/OR OBSTRUCTIONS TO VISIBILITY.

MSZ001>002-007>008-010>013-018>021-025>028-034>036-271100-
NORTHWEST MISSISSIPPI
  
CITY           SKY/WX    TMP DP  RH WIND       PRES   REMARKS
CLEVELAND      PTSUNNY   76  76 100 CALM      29.93R                  
GREENWOOD      CLOUDY    76  73  91 S3        29.94R                  
GREENVILLE     CLOUDY    78  74  87 CALM      29.93R                  
OXFORD         MOCLDY    75  72  88 SE6       29.98R                  
WINONA         CLOUDY    75  75  98 CALM      29.94R                  
$$

MSZ003>006-009-014>017-022>024-029>033-037>039-271100-
NORTHEAST MISSISSIPPI
  
CITY           SKY/WX    TMP DP  RH WIND       PRES   REMARKS
ABERDEEN       PTSUNNY   75  59  57 CALM      29.97R                  
COLUMBUS AFB   MOCLDY    77  75  94 SE3       29.96R                  
GOLDN TRIANGLE CLOUDY    79  72  78 S7        29.95R                  
TUPELO         CLOUDY    78  73  84 SE6       29.97R                  
$$

MSZ040-058-271100-
CENTRAL MISSISSIPPI
  
CITY           SKY/WX    TMP DP  RH WIND       PRES   REMARKS
JACKSON INTL   LGT RAIN  76  73  91 S6        29.94R                  
JACKSON HAWKNS CLOUDY    75  73  93 S5        29.95R                  
MADISON        CLOUDY    73  72  94 S3        29.94R                  
MERIDIAN KEY   CLOUDY    78  74  87 S8        29.97R                  
MERIDIAN NAS   CLOUDY    77  72  84 S3        29.97S                  
VICKSBURG VKS  CLOUDY    77  75  94 CALM      29.93S                  
$$

MSZ059>079-271100-
SOUTH MISSISSIPPI
  
CITY           SKY/WX    TMP DP  RH WIND       PRES   REMARKS
BROOKHAVEN     CLOUDY   N/A N/A N/A S7        29.96R                  
COLUMBIA       CLOUDY    75  75 100 S5        29.99S                  
HATTIESBURG    CLOUDY    76  73  91 SE3       29.99R                  
MCCOMB         CLOUDY    75  73  93 S6        29.96R                  
NATCHEZ        CLOUDY    75  73  94 S6        29.93S                  
PINE BELT      MOCLDY    73  72  94 S6        29.99R                  
$$

MSZ080>082-271100-
COASTAL MISSISSIPPI
  
CITY           SKY/WX    TMP DP  RH WIND       PRES   REMARKS
BILOXI         PTCLDY    82  74  77 SW12      29.98R                  
PASCAGOULA     MOCLDY    74  74 100 CALM      29.99R                  
GULFPORT       PTCLDY    81  73  76 S5        29.97R                  
$$

LAZ007>009-015>016-023>026-271100-
NORTHEAST LOUISIANA
  
CITY           SKY/WX    TMP DP  RH WIND       PRES   REMARKS
BASTROP        CLOUDY    75  74  98 CALM      29.93S                  
TALLULAH/VBURG CLOUDY    77  75  93 CALM      29.92S                  
VIDALIA        CLOUDY    76  75  98 SW5       29.95S                  
$$
  

Return to Home page


Western Regional Climate Center, wrcc@dri.edu